Regional Weather Roundup
Issued by NWS

Home | Current Version | Previous Version | Graphics & Text | Print | Product List | Glossary On
Versions: 1 2 3 4 5 6 7 8 9 10 11 12 13 14 15 16 17 18 19 20 21 22 23 24 25 26 27 28 29 30 31 32 33 34 35 36 37 38 39 40 41 42 43 44 45 46 47 48 49 50
000
ASUS43 KMKX 230700
RWRWI

WISCONSIN REGIONAL WEATHER ROUNDUP
NATIONAL WEATHER SERVICE MILWAUKEE/SULLIVAN WI
200 AM CDT SAT MAY 23 2015

NOTE: "FAIR" INDICATES FEW OR NO CLOUDS BELOW 12,000 FEET WITH NO
SIGNIFICANT WEATHER AND/OR OBSTRUCTIONS TO VISIBILITY.

WIZ001-002-006>008-014>016-023>028-230800-
NORTHWEST WISCONSIN

CITY           SKY/WX    TMP DP  RH WIND       PRES   REMARKS
SUPERIOR ARPT  CLEAR     36  34  90 S5        30.19S WCI  32
ASHLAND        CLEAR     44  36  73 SW6       30.18S
HAYWARD        FAIR      42  38  85 CALM      30.22R
SIREN          FAIR      45  40  81 CALM      30.21S
CUMBERLAND     CLEAR     45  41  87 CALM      30.23R
RICE LAKE      CLEAR     44  42  92 CALM      30.24R
CHETEK         CLEAR     43  42  96 CALM      30.23R
LADYSMITH      CLEAR     43  40  89 CALM      30.24S
EAU CLAIRE     CLEAR     45  39  79 CALM      30.22S
MENOMONIE      PTCLDY    49  42  74 CALM      30.23S
NEW RICHMOND   PTCLDY    52  39  61 SE3       30.22R
OSCEOLA        PTCLDY    46  41  85 CALM      30.24R
$$

WIZ003>005-009-010-017-018-230800-
NORTH CENTRAL WISCONSIN

CITY           SKY/WX    TMP DP  RH WIND       PRES   REMARKS
MANITOWISH WTR CLEAR     43  35  74 CALM      30.22S
ARBOR VITAE    CLEAR     43  37  78 CALM      30.22S
WOODRUFF       CLEAR     43  37  78 CALM      30.22S
RHINELANDER    CLEAR     39  34  82 CALM      30.24S
EAGLE RIVER    CLEAR     38  31  77 CALM      30.22S
LAND O LAKES   CLEAR     33  32  94 CALM      30.23S
PHILLIPS       FAIR      40  38  92 CALM      30.23R
TOMAHAWK       CLEAR     35  33  92 CALM      30.25R
MEDFORD        CLEAR     42  37  82 CALM      30.24S
MERRILL        CLEAR     38  36  92 CALM      30.25S
$$

WIZ029-030-035-036-043>047-230800-
CENTRAL WISCONSIN

CITY           SKY/WX    TMP DP  RH WIND       PRES   REMARKS
WAUSAU         CLEAR     43  40  89 E7        30.24R
MOSINEE        CLEAR     43  41  93 S3        30.26R
MARSHFIELD     CLEAR     50  37  61 CALM      30.24R
STEVENS POINT  CLEAR     40  36  84 CALM      30.26R
WAUPACA        CLEAR     46  35  65 S3        30.26S
WAUTOMA        NOT AVBL
WISC RAPIDS    PTCLDY    51  36  56 S6        30.26R
CAMP DOUGLAS   PTCLDY    41  41 100 E3        30.24R
$$

WIZ011>013-019>022-031-037>040-048>050-230800-
NORTHEAST WISCONSIN

CITY           SKY/WX    TMP DP  RH WIND       PRES   REMARKS
ANTIGO         CLEAR     42  34  72 SE5       30.26R
SHAWANO        CLEAR     48  37  65 CALM      30.27R
OCONTO         CLEAR     36  33  90 CALM      30.26S
STURGEON BAY   CLEAR     48  25  40 S7        30.29S
GREEN BAY      CLEAR     44  35  70 CALM      30.27R
MANITOWOC      NOT AVBL
APPLETON       CLEAR     46  28  49 S7        30.27R
CLINTONVILLE   CLEAR     43  34  70 CALM      30.26S
OSHKOSH        PTCLDY    46  31  55 S6        30.26F
$$

WIZ032>034-041-042-053>061-230800-
SOUTHWEST WISCONSIN

CITY           SKY/WX    TMP DP  RH WIND       PRES   REMARKS
LA CROSSE      PTCLDY    52  44  74 SE6       30.23R
SPARTA         PTCLDY    41  39  95 CALM      30.25R
VIROQUA        PTCLDY    57  38  49 SE6       30.24R
BOSCOBEL       MOCLDY    50  45  83 N5        30.25R
PRAIRIE DU CHI MOCLDY    51  45  77 CALM      30.23S
PLATTEVILLE    CLOUDY    57  42  57 SE9       30.25S
$$

WIZ056-057-062-063-064-067-068-230800-
SOUTH CENTRAL WISCONSIN

CITY           SKY/WX    TMP DP  RH WIND       PRES   REMARKS
REEDSBURG      MOCLDY    55  38  53 SE3       30.25S
BARABOO/DELLS  MOCLDY    55  32  41 S10       30.25S
LONE ROCK      NOT AVBL
MINERAL POINT  CLOUDY    55  36  47 SE9       30.26S
MADISON        MOCLDY    54  31  41 S12       30.27S
MIDDLETON      MOCLDY    56  28  34 S5        30.28R
WATERTOWN      MOCLDY    46  32  58 CALM      30.28R
MONROE         PTCLDY    50  36  57 SE9       30.27S
JANESVILLE     PTCLDY    50  30  46 SE3       30.28S
$$

WIZ051-052-058>065-066-070>072-230800-
SOUTHEAST WISCONSIN

CITY           SKY/WX    TMP DP  RH WIND       PRES   REMARKS
MILWAUKEE      MOCLDY    50  30  46 S7        30.28S
WAUKESHA       MOCLDY    46  28  49 S3        30.30S
MILWAUKEE/TIMM MOCLDY    46  27  46 CALM      30.29S
RACINE         MOCLDY    47  32  56 SW6       30.30S
BURLINGTON     MOCLDY    42  32  67 CALM      30.29R
KENOSHA        PTCLDY    46  33  60 S5        30.29S
FOND DU LAC    PTCLDY    45  28  51 S3        30.27S
SHEBOYGAN      PTCLDY    42  30  62 SW7       30.28R
WEST BEND      PTCLDY    48  25  40 CALM      30.28S
JUNEAU         MOCLDY    46  30  53 SE3       30.29S
$$

LSZ147-162-230800-
LAKE SUPERIOR

STATION/POSITION TIME  TEMP    WIND        PRES    WAVE
                       AIR SEA DIR/SP/G            HT/PER
                 (UTC) (F)     (DEG/KT/KT) (MB)    (FT/S)
W MID LAKE BUOY  0550   42 36  190/  6/  6   N/A     0
DEVILS ISLAND    0600   42     250/ 10/ 12   N/A
PORT WING        0600   41     170/  3/  4   N/A
SAXON HARBOR     0640   56     170/  5/  8   N/A
$$

LMZ867-665-643>646-230800-
LAKE MICHIGAN

STATION/POSITION TIME  TEMP    WIND        PRES    WAVE
                       AIR SEA DIR/SP/G            HT/PER
                 (UTC) (F)     (DEG/KT/KT) (MB)    (FT/S)
CHAMBERS ISLAND  0600   44     150/  3/  4   N/A
N MID LAKE BUOY  0550   40 36  210/  6/  6   N/A     0
NORTHPORT PIER   0600   45     160/  3/ 16   N/A
SISTER BAY       0602   45     180/  6/  8   N/A
KEWAUNEE LAKESHO 0600   47     200/  2/  5   N/A
SHEBOYGAN LAKESH 0600   51     220/ 11/ 14   N/A
PORT WASHINGTON  0600   49     260/  4/  5   N/A
ATWATER BUOY     0600   51 45  200/  8/  8   N/A
MILWAUKEE LAKESH 0600   53     220/  7/  8   N/A
S MID LAKE BUOY  0550   44 38  130/  6/  6   N/A     0
KENOSHA   LAKESH 0600   52     190/  7/ 10   N/A
$$

TC  - TEMPERATURE IN CELSIUS
VSB - VISIBILITY IN STATUTE MILES
WCI - WIND CHILL INDEX
HX  - HEAT INDEX



USA.gov is the U.S. government's official web portal to all federal, state and local government web resources and services.